Date String (YYYY-MM-DD hh:mm:ss) UTC,Instrument flags,Ambient pressure (hPa),Sample flow (lpm),Bypass flow (lpm),Sample temperature (°C),Ambient temperature (°C),ASC tube jacket temperature (°C),LED temperature (°C),Box temperature (°C),Sample RH (%),Span deviation,Mass concentration (μg/m³),Mass concentration (μg/m³),Mass concentration (μg/m³)
DateTimeUTC,F1_M11,P_M11,Q1_M11,Q2_M11,T1_M11,T2_M11,T3_M11,T4_M11,T5_M11,U1_M11,ZSPAN_M11,X0_M11,X2_M11,X1_M11
2021-12-02 03:00:00,,0828.4,5.00,0.00,30.3,29.4,00.0,39.2,32.0,07.9,0000.0,0000.90,0000.41,0000.26
2021-12-02 03:01:00,,0828.3,4.99,0.00,30.3,29.4,00.0,39.2,32.0,08.0,0000.0,0000.93,0000.42,0000.26
2021-12-02 03:02:00,,0828.3,5.00,0.00,30.3,29.4,00.0,39.2,32.0,08.2,0000.0,0000.92,0000.42,0000.26
2021-12-02 03:03:00,,0828.4,5.00,0.00,30.3,29.4,00.0,39.2,32.0,08.2,0000.0,0000.86,0000.42,0000.26
2021-12-02 03:04:00,,0828.4,5.00,0.00,30.3,29.4,00.0,39.2,32.0,08.5,0000.0,0000.79,0000.42,0000.26
2021-12-02 03:05:00,,0828.4,4.99,0.00,30.3,29.4,00.0,39.2,32.0,08.7,0000.0,0000.77,0000.41,0000.27
2021-12-02 03:06:00,,0828.4,5.00,0.00,30.3,29.4,00.0,39.2,31.9,08.7,0000.0,0000.74,0000.40,0000.27
2021-12-02 03:07:00,,0828.5,4.99,0.00,30.3,29.4,00.0,39.2,32.0,08.7,0000.0,0000.73,0000.41,0000.28
2021-12-02 03:08:00,,0828.5,5.00,0.00,30.3,29.4,00.0,39.2,32.0,08.7,0000.0,0000.70,0000.44,0000.30
2021-12-02 03:09:00,,0828.5,4.99,0.00,30.3,29.4,00.0,39.2,32.0,08.7,0000.0,0000.73,0000.48,0000.31
2021-12-02 03:10:00,,0828.6,5.02,0.00,30.3,29.4,00.0,39.2,32.0,08.6,0000.0,0000.73,0000.48,0000.32
2021-12-02 03:11:00,,0828.7,5.00,0.00,30.3,29.4,00.0,39.2,32.0,08.6,0000.0,0000.78,0000.48,0000.32
2021-12-02 03:12:00,,0828.8,5.00,0.00,30.3,29.4,00.0,39.2,32.0,08.6,0000.0,0000.87,0000.51,0000.33
2021-12-02 03:13:00,,0828.7,4.99,0.00,30.3,29.4,00.0,39.2,32.0,08.5,0000.0,0001.02,0000.52,0000.34
2021-12-02 03:14:00,,0828.5,4.99,0.00,30.3,29.5,00.0,39.2,32.0,08.4,0000.0,0001.22,0000.51,0000.33
2021-12-02 03:15:00,,0828.9,5.01,0.00,30.3,29.5,00.0,39.3,32.0,08.4,0000.0,0001.22,0000.51,0000.34
2021-12-02 03:16:00,,0828.9,5.00,0.00,30.3,29.5,00.0,39.3,32.0,08.3,0000.0,0001.25,0000.53,0000.33
2021-12-02 03:17:00,,0829.0,5.00,0.00,30.3,29.5,00.0,39.3,32.0,08.3,0000.0,0001.30,0000.55,0000.34
2021-12-02 03:18:00,,0829.2,5.01,0.00,30.3,29.5,00.0,39.3,32.1,08.3,0000.0,0001.31,0000.54,0000.33
2021-12-02 03:19:00,,0828.9,5.00,0.00,30.3,29.5,00.0,39.3,32.1,08.0,0000.0,0001.29,0000.52,0000.32
2021-12-02 03:20:00,,0828.9,5.00,0.00,30.4,29.5,00.0,39.3,32.0,07.9,0000.0,0001.27,0000.50,0000.31
2021-12-02 03:21:00,,0828.9,5.00,0.00,30.4,29.5,00.0,39.3,32.1,07.9,0000.0,0001.24,0000.48,0000.30
2021-12-02 03:22:00,,0828.9,4.99,0.00,30.4,29.5,00.0,39.3,32.1,07.9,0000.0,0001.94,0000.46,0000.30
2021-12-02 03:23:00,,0828.8,5.02,0.00,30.4,29.5,00.0,39.3,32.1,07.9,0000.0,0002.66,0000.41,0000.29
2021-12-02 03:24:00,,0829.1,4.99,0.00,30.4,29.5,00.0,39.3,32.1,07.9,0000.0,0002.53,0000.39,0000.28
2021-12-02 03:25:00,,0828.9,5.00,0.00,30.4,29.5,00.0,39.3,32.1,07.9,0000.0,0002.25,0000.39,0000.27
2021-12-02 03:26:00,,0829.0,5.00,0.00,30.4,29.5,00.0,39.3,32.1,07.9,0000.0,0002.28,0000.39,0000.27
2021-12-02 03:27:00,,0828.5,5.01,0.00,30.4,29.5,00.0,39.3,32.1,08.0,0000.0,0002.27,0000.37,0000.27
2021-12-02 03:28:00,,0828.5,4.99,0.00,30.4,29.6,00.0,39.3,32.1,07.8,0000.0,0002.26,0000.37,0000.26
2021-12-02 03:29:00,,0828.4,5.00,0.00,30.4,29.6,00.0,39.3,32.1,07.7,0000.0,0002.89,0000.36,0000.25
2021-12-02 03:30:00,,0828.8,5.00,0.00,30.4,29.6,00.0,39.3,32.1,07.7,0000.0,0003.08,0000.33,0000.25
2021-12-02 03:31:00,,0828.9,5.00,0.00,30.4,29.6,00.0,39.3,32.1,07.7,0000.0,0003.03,0000.32,0000.25
2021-12-02 03:32:00,,0828.7,4.98,0.00,30.4,29.6,00.0,39.4,32.1,07.8,0000.0,0003.06,0000.32,0000.24
2021-12-02 03:33:00,,0828.6,5.02,0.00,30.4,29.6,00.0,39.4,32.1,07.8,0000.0,0002.27,0000.35,0000.25
2021-12-02 03:34:00,,0828.9,4.99,0.00,30.4,29.6,00.0,39.4,32.1,07.8,0000.0,0001.46,0000.34,0000.24
2021-12-02 03:35:00,,0828.7,5.01,0.00,30.4,29.6,00.0,39.4,32.1,07.7,0000.0,0001.44,0000.34,0000.24
2021-12-02 03:36:00,,0829.0,4.98,0.00,30.4,29.6,00.0,39.4,32.1,07.7,0000.0,0001.61,0000.37,0000.24
2021-12-02 03:37:00,,0829.0,5.00,0.00,30.4,29.6,00.0,39.4,32.1,07.6,0000.0,0001.61,0000.37,0000.23
2021-12-02 03:38:00,,0828.9,4.98,0.00,30.4,29.5,00.0,39.4,32.1,07.7,0000.0,0001.59,0000.35,0000.23
2021-12-02 03:39:00,,0828.7,5.00,0.00,30.4,29.6,00.0,39.4,32.1,07.7,0000.0,0001.54,0000.33,0000.22
2021-12-02 03:40:00,,0828.6,5.00,0.00,30.4,29.6,00.0,39.4,32.1,07.6,0000.0,0000.96,0000.32,0000.22
2021-12-02 03:41:00,,0828.5,5.00,0.00,30.4,29.6,00.0,39.4,32.1,07.6,0000.0,0000.71,0000.32,0000.22
2021-12-02 03:42:00,,0828.5,5.01,0.00,30.4,29.6,00.0,39.4,32.1,07.6,0000.0,0000.73,0000.33,0000.22
2021-12-02 03:43:00,,0828.4,4.99,0.00,30.4,29.5,00.0,39.4,32.1,07.6,0000.0,0000.77,0000.34,0000.22
2021-12-02 03:44:00,,0828.5,5.01,0.00,30.4,27.6,00.0,39.4,31.7,07.4,0000.0,0000.69,0000.31,0000.21
2021-12-02 03:45:00,,0828.5,4.99,0.00,30.2,25.5,00.0,39.3,31.1,07.4,0000.0,0001.04,0000.32,0000.20
2021-12-02 03:46:00,,0828.6,4.99,0.00,30.0,25.4,00.0,39.2,31.1,07.5,0000.0,0001.10,0000.33,0000.20
2021-12-02 03:47:00,,0828.5,5.01,0.00,29.9,25.8,00.0,39.1,31.1,07.5,0000.0,0000.98,0000.31,0000.19
2021-12-02 03:48:00,,0828.8,5.00,0.00,29.8,26.4,00.0,39.1,31.1,07.6,0000.0,0000.91,0000.29,0000.19
2021-12-02 03:49:00,,0828.9,5.01,0.00,29.7,26.9,00.0,39.0,31.1,07.8,0000.0,0000.92,0000.30,0000.19
2021-12-02 03:50:00,,0829.0,4.99,0.00,29.7,27.3,00.0,38.9,31.2,07.9,0000.0,0000.94,0000.30,0000.19
2021-12-02 03:51:00,,0828.5,5.02,0.00,29.7,27.6,00.0,38.9,31.3,07.7,0000.0,0000.88,0000.30,0000.19
2021-12-02 03:52:00,,0828.5,5.00,0.00,29.7,27.8,00.0,38.9,31.3,07.6,0000.0,0000.85,0000.30,0000.19
2021-12-02 03:53:00,,0828.5,5.00,0.00,29.7,28.0,00.0,38.9,31.3,07.7,0000.0,0000.83,0000.29,0000.19
2021-12-02 03:54:00,,0828.5,4.99,0.00,29.7,28.2,00.0,38.8,31.4,07.7,0000.0,0000.80,0000.28,0000.18
2021-12-02 03:55:00,,0828.5,4.99,0.00,29.7,28.3,00.0,38.8,31.4,07.7,0000.0,0000.80,0000.29,0000.19
2021-12-02 03:56:00,,0828.5,5.01,0.00,29.7,28.4,00.0,38.8,31.4,07.7,0000.0,0000.48,0000.30,0000.18
2021-12-02 03:57:00,,0828.5,4.99,0.00,29.8,28.5,00.0,38.8,31.4,07.7,0000.0,0000.47,0000.30,0000.18
2021-12-02 03:58:00,,0828.5,5.02,0.00,29.8,28.6,00.0,38.8,31.5,07.7,0000.0,0000.46,0000.29,0000.18
2021-12-02 03:59:00,,0828.7,5.01,0.00,29.8,28.7,00.0,38.8,31.5,07.7,0000.0,0000.47,0000.30,0000.18
